COSMOS 2251 DEB

Satellite information

Favourite Embed

Satellite Type and Status

DEBRISIN ORBIT

Key statistics

Satellite COSMOS 2251 DEB at a glance.

Uptime

11868

Days in orbit

Revolutions

≈ 14.4

Per day

Orbit

LEO

Low Earth Orbit

Inclination

74.0

Latest

Satellite identification and parameters

Extended collection of information and parameters for COSMOS 2251 DEB.

Object identification

Identified? True

Debris? True

Object name: COSMOS 2251 DEB

International designator: 1993-036BV

Object number (NORAD): 33828

Object ID (CCSDS): 33828

Country: COMMONWEALTH OF INDEPENDENT STATES (CIS)

Current information (Y/N): Y

RCS size: SMALL

Orbital parameters

Period: 99.7 minutes

Inclination: 74.0467 deg

SMA: 7122.364 km

Apoapsis: 765.209 km

Periapsis: 723.249 km

RAAN: 239.2213 deg

Eccentricy: 0.00294565

Argument of periapsis: 312.2502 deg

Mean anomaly: 174.2235 deg

Mean motion: 14.4433018 rev/day

Mean motion (dot): 0.00002551 rev/day2

B* drag term: 0.00074486904 1/REarth

Two-line elements (TLE)

Creation date: Dec. 12, 2025, 10:14 a.m.

Reference frame: TEME

Reference center: EARTH

Epoch: Dec. 12, 2025, 3:09 a.m. UTC

TLE line 0: 0 COSMOS 2251 DEB

TLE line 1: 1 33828U 93036BV 25346.13143470 .00002551 00000-0 74487-3 0 9994

TLE line 2: 2 33828 74.0467 239.2213 0029457 312.2502 174.2235 14.44330180883043

Live tracking on map

Real-time ground track for satellite COSMOS 2251 DEB.

In-orbit conjunctions

A list of the most updated potential collisions computed for object COSMOS 2251 DEB.

Target Orbit TCA Probability of collision Miss distance Type
NOAA 16 DEB SSO 2025-10-17 12:58:52 0.0001485288 174.0 (m) DEBRIS
CZ-4B DEB SSO 2024-11-11 06:46:17 0.0009977667 151.0 (m) DEBRIS
SCOUT G-1 R/B LEO 2024-08-22 13:30:20 0.0001314223 449.0 (m) ROCKET BODY

Associated space launch

Military communications satellite. Destroyed in a collision with Iridium 33.

COSMOS 2251 DEB was lifted into orbit during the mission ‘Kosmos-3M | Strela-2M 51’, on board a Kosmos-3M space rocket.

The launch took place on June 16, 1993, 4:17 a.m. from 132/1 (132L).

For more information about the launch, click the button.

Launch to space Kosmos-3M | Strela-2M 51
Kosmos-3M | Strela-2M 51

Agency: N/A

Status: Launch Successful

Launch date: June 16, 1993, 4:17 a.m. UTC

Rocket: Kosmos-3M

Launch pad: 132/1 (132L)

Location: Plesetsk Cosmodrome, Russian Federation

...

Latest news about this satellite

There are no fresh news available about this satellite. Check back as we update our databases every day.


Newsletter sign-up

Weekly statistics, charts and insights to help you stay on top of the space industry.